STARLINK-31031 (58711 NORAD) Tracking and Keplerian Element Data

This shows tracking and keplerian element data for the satellite.

Feedback or suggestion? Click here.




ElementValue
Catalog58711
NameSTARLINK-31031
Epoch Orbit266
Epoch Day13.25002315
Epoch Year2024
RAAN198.5795
Inclination53.1667
Eccentricity7.78E-05
Argument of Perigee88.6922
Mean Anonmoly252.2545
Mean Motion15.60018137
Decay Rate-0.01752214
L11 58711U 24002G 24013.25002315 -.01752214 00000+0 -23817-1 0 9993
L22 58711 53.1667 198.5795 0000778 88.6922 252.2545 15.60018137 2664



Live tracking and technical data element details for STARLINK-31031 (NORAD 58711). STARLINK-31031 can be tracked NOW for your location showing map with azimuth and elevation plus other details from your city location.







IsCatalogInMostPopularTable: catalog: 58711, numindb: 30
Update: records affected: 1



GetName: 58711 STARLINK-31031

Hit Count: updated at: Wed, 17 Apr 2024 03:14:07 GMT